This is the latest recevied weather packets stored in our database for station/object LZ1NAG-10. If no packets are shown the sender has not sent any weather packets the latest 10 day(s).
| Time | Temp. | Humidity | Pressure | Rain* | Wind** | Luminosity | Snow |
|---|---|---|---|---|---|---|---|
| 1778138335 | 16.67° C | 50% | 1021.7 hPa | - | - | - | - |
| 1778137435 | 16.67° C | 50% | 1021.8 hPa | - | - | - | - |
| 1778136535 | 15.56° C | 50% | 1021.8 hPa | - | - | - | - |
| 1778135635 | 15.56° C | 50% | 1021.8 hPa | - | - | - | - |
| 1778134734 | 15° C | 50% | 1021.7 hPa | - | - | - | - |
| 1778133834 | 14.44° C | 50% | 1021.7 hPa | - | - | - | - |
| 1778132934 | 13.89° C | 51% | 1021.7 hPa | - | - | - | - |
| 1778132034 | 13.89° C | 50% | 1021.6 hPa | - | - | - | - |
| 1778131134 | 14.44° C | 50% | 1021.4 hPa | - | - | - | - |
| 1778130233 | 13.33° C | 50% | 1021.5 hPa | - | - | - | - |
| 1778129332 | 12.78° C | 51% | 1021.5 hPa | - | - | - | - |
| 1778128432 | 11.67° C | 51% | 1021.5 hPa | - | - | - | - |
| 1778127532 | 11.11° C | 51% | 1021.1 hPa | - | - | - | - |
| 1778126632 | 11.11° C | 52% | 1021.1 hPa | - | - | - | - |
| 1778125732 | 11.67° C | 51% | 1021 hPa | - | - | - | - |
| 1778124832 | 11.67° C | 52% | 1020.9 hPa | - | - | - | - |
| 1778123931 | 11.11° C | 52% | 1020.8 hPa | - | - | - | - |
| 1778123031 | 10.56° C | 52% | 1020.8 hPa | - | - | - | - |
| 1778122131 | 10.56° C | 52% | 1020.8 hPa | - | - | - | - |
| 1778121231 | 10° C | 52% | 1020.7 hPa | - | - | - | - |
| 1778120331 | 10° C | 52% | 1020.6 hPa | - | - | - | - |
| 1778119431 | 10° C | 52% | 1020.5 hPa | - | - | - | - |
| 1778118531 | 9.44° C | 52% | 1020.6 hPa | - | - | - | - |
| 1778117630 | 9.44° C | 52% | 1020.6 hPa | - | - | - | - |
| 1778116730 | 8.89° C | 53% | 1020.6 hPa | - | - | - | - |
* Rain since midnight (hover to see other rain measurements)
** Current wind speed in m/s (hover to see current wind gust speed)